Regional Weather Roundup
Issued by NWS

Home | Current Version | Previous Version | Text Only | Print | Product List | Glossary Off
Versions: 1 2 3 4 5 6 7 8 9 10 11 12 13 14 15 16 17 18 19 20 21 22 23 24 25 26 27 28 29 30 31 32 33 34 35 36 37 38 39 40 41 42 43 44 45 46 47 48 49 50

866
ASUS45 KPSR 081410
RWRAZ

ARIZONA HOURLY REGIONAL WEATHER ROUNDUP
NATIONAL WEATHER SERVICE PHOENIX AZ
700 AM MST THU DEC 08 2016

NOTE: FAIR INDICATES FEW OR NO CLOUDS BELOW 12,000 FEET WITH NO
SIGNIFICANT WEATHER AND/OR OBSTRUCTIONS TO VISIBILITY.

AZZ001>003-036-081500-
NORTHWEST ARIZONA

CITY           SKY/WX    TMP DP  RH WIND       PRES   REMARKS
BULLHEAD CITY  CLEAR     48  16  27 N15       30.23R
KINGMAN        CLEAR     27   9  46 CALM      30.21R
$$

AZZ004>008-015-016-018-081500-
NORTH CENTRAL ARIZONA

CITY           SKY/WX    TMP DP  RH WIND       PRES   REMARKS
GRAND CANYON   CLOUDY    23  13  65 NE5       30.23R WCI  17
WILLIAMS       CLEAR     27  18  69 SE14      30.19R WCI  15
PRESCOTT       CLEAR     25  24  96 CALM      30.20S
FLAGSTAFF      CLEAR     15  12  88 CALM      30.20S
PAYSON         CLEAR     32  25  74 CALM      30.24R
PAGE           MOCLDY    28   7  41 NW3       30.30R
$$

AZZ009>014-017-081500-
NORTHEAST ARIZONA

CITY           SKY/WX    TMP DP  RH WIND       PRES   REMARKS
WINSLOW        PTCLDY    16  10  77 SW3       30.27R
SAINT JOHNS    CLEAR     17  15  92 CALM      30.24R
WINDOW ROCK    CLEAR     15   9  76 CALM      30.26R
SHOW LOW       CLEAR     18  14  86 CALM      30.24R
$$

AZZ023-081500-
GREATER PHOENIX AREA

CITY           SKY/WX    TMP DP  RH WIND       PRES   REMARKS
PHOENIX        PTCLDY    46  38  73 SW5       30.16R
BUCKEYE          N/A     39  36  87 CALM      30.20R
GLENDALE       PTCLDY    43  37  81 CALM      30.19R
LUKE AFB       CLEAR     42  35  78 CALM      30.17R
DEER VALLEY    CLEAR     44  39  82 CALM      30.17R
SCOTTSDALE     CLEAR     45  39  79 CALM      30.18R
MESA-FALCON    PTCLDY   N/A N/A N/A N14       30.14R
MESA-GATEWAY   PTCLDY    41  36  81 SE5       30.18R
CHANDLER       CLEAR     43  39  87 CALM      30.18R
$$

AZZ027-028-081500-
SOUTHWEST MARICOPA COUNTY AND PINAL COUNTY

CITY           SKY/WX    TMP DP  RH WIND       PRES   REMARKS
CASA GRANDE    NOT AVBL
GILA BEND      FAIR     N/A N/A N/A SE8         N/A
$$

AZZ503-504-507>509-081500-
SOUTHEAST ARIZONA

CITY           SKY/WX    TMP DP  RH WIND       PRES   REMARKS
TUCSON         CLEAR     42  35  76 SE7       30.20R
DAVIS-MONTHAN  CLEAR     39  34  84 S7        30.18R WCI  34
RYAN FIELD     CLEAR     39  36  87 CALM        N/A
NOGALES        CLEAR     35  32  88 CALM      30.18R
SIERRA VISTA   CLEAR     36  33  87 S3        30.21R
DOUGLAS        CLEAR     29  27  92 CALM      30.21R
SAFFORD        CLEAR     34  30  85 CALM      30.20R
$$

AZZ020-021-025-026-031-081500-
SOUTHWEST ARIZONA

CITY           SKY/WX    TMP DP  RH WIND       PRES   REMARKS
YUMA           CLEAR     48  14  25 NE3       30.19R
$$

CAZ031-033-041-043-047-048-061-081500-
SOUTHERN CALIFORNIA

CITY           SKY/WX    TMP DP  RH WIND       PRES   REMARKS
DOWNTOWN L.A.  CLOUDY    53  42  66 CALM      30.19R
L.A. AIRPORT   MOCLDY    53  45  74 CALM      30.20R
SAN DIEGO      PTCLDY    50  45  83 CALM      30.21R
BURBANK        CLOUDY    50  36  58 CALM      30.19R
ONTARIO        MOCLDY    48  40  73 NE3       30.20R
RIVERSIDE      CLEAR     44  36  73 NE3       30.21R
PALM SPRINGS   CLEAR     46  29  51 CALM      30.21R
EL CENTRO NAS  PTCLDY    41  24  51 W9        30.21R
IMPERIAL       CLEAR     42  28  57 W3        30.19R
BLYTHE         CLEAR     41  10  28 W5        30.21R
NEEDLES        CLEAR     42  10  27 NW6       30.23R
$$

NVZ020-UTZ003-081500-
SOUTHERN NEVADA-UTAH

CITY           SKY/WX    TMP DP  RH WIND       PRES   REMARKS
LAS VEGAS      PTCLDY    36   9  32 CALM      30.24R
SALT LAKE CITY CLOUDY    22  11  62 SE3       30.29R
$$

NMZ009-TXZ055-081500-
NEW MEXICO-WEST TEXAS

CITY           SKY/WX    TMP DP  RH WIND       PRES   REMARKS
ALBUQUERQUE    CLOUDY    24  13  62 NW6       30.36R WCI  17
EL PASO        CLOUDY    37  25  61 NE10      30.33R WCI  30
$$


........................KEY........................
SKY/WX - SKY CONDITION/WEATHER
TMP    - TEMPERATURE IN FAHRENHEIT
DP     - DEW POINT IN FAHRENHEIT
RH     - RELATIVE HUMIDITY IN PERCENT
WIND   - DIRECTION AND SPEED IN MILES PER HOUR (MPH)
VRB    - VARIABLE WIND DIRECTION
PRES   - MEAN SEA LEVEL PRESSURE IN INCHES OF MERCURY
         F - FALLING PRESSURE   R - RISING PRESSURE
         S - STEADY PRESSURE
VSB    - VISIBILITY IN MILES
HX     - HEAT INDEX IN FAHRENHEIT
WCI    - WIND CHILL INDEX IN FAHRENHEIT
TC     - TEMPERATURE IN CELSIUS WHICH IS ALSO KNOWN AS
         TEMPERATURE IN CENTIGRADE
AFB    - AIR FORCE BASE
         LUKE AFB IS LUKE AIR FORCE BASE
         DAVIS-MONTHAN IS DAVIS-MONTHAN AIR FORCE BASE
NAS    - NAVAL AIR STATION
         EL CENTRO NAS IS EL CENTRO NAVAL AIR STATION
N/A    - NOT AVAILABLE





USA.gov is the U.S. government's official web portal to all federal, state and local government web resources and services.